Date String (YYYY-MM-DD hh:mm:ss) UTC,Instrument flags,Ambient pressure (hPa),Sample flow (lpm),Bypass flow (lpm),Sample temperature (°C),Ambient temperature (°C),ASC tube jacket temperature (°C),LED temperature (°C),Box temperature (°C),Sample RH (%),Span deviation,Mass concentration (μg/m³),Mass concentration (μg/m³),Mass concentration (μg/m³)
DateTimeUTC,F1_M11,P_M11,Q1_M11,Q2_M11,T1_M11,T2_M11,T3_M11,T4_M11,T5_M11,U1_M11,ZSPAN_M11,X2_M11,X0_M11,X1_M11
2022-06-29 20:00:00,,0828.8,5.01,0.00,28.9,27.2,00.0,37.6,30.8,19.2,0000.0,0003.91,0009.89,0003.19
2022-06-29 20:01:00,,0829.1,5.00,0.00,28.9,27.4,00.0,37.6,30.8,19.2,0000.0,0003.89,0010.01,0003.18
2022-06-29 20:02:00,,0829.0,5.01,0.00,28.9,27.6,00.0,37.6,30.9,19.2,0000.0,0003.89,0009.95,0003.18
2022-06-29 20:03:00,,0829.0,5.00,0.00,28.9,27.8,00.0,37.7,31.0,18.9,0000.0,0003.87,0009.89,0003.17
2022-06-29 20:04:00,,0829.0,4.99,0.00,29.0,27.9,00.0,37.7,31.0,19.0,0000.0,0003.88,0009.89,0003.18
2022-06-29 20:05:00,,0829.2,5.01,0.00,29.0,27.5,00.0,37.6,30.9,19.1,0000.0,0003.85,0009.50,0003.17
2022-06-29 20:06:00,,0829.2,5.00,0.00,28.9,26.9,00.0,37.6,30.7,19.1,0000.0,0003.83,0009.46,0003.17
2022-06-29 20:07:00,,0829.3,5.00,0.00,28.9,26.9,00.0,37.6,30.7,19.3,0000.0,0003.81,0009.36,0003.17
2022-06-29 20:08:00,,0829.4,5.00,0.00,28.9,27.0,00.0,37.6,30.7,19.4,0000.0,0003.81,0008.95,0003.17
2022-06-29 20:09:00,,0829.4,5.00,0.00,28.8,27.1,00.0,37.6,30.7,19.3,0000.0,0003.77,0008.74,0003.16
2022-06-29 20:10:00,,0829.3,4.99,0.00,28.9,27.4,00.0,37.6,30.8,19.3,0000.0,0003.75,0007.96,0003.16
2022-06-29 20:11:00,,0829.3,5.01,0.00,28.9,27.6,00.0,37.6,30.9,19.4,0000.0,0003.68,0007.37,0003.15
2022-06-29 20:12:00,,0829.2,5.00,0.00,28.9,27.8,00.0,37.7,30.9,19.4,0000.0,0003.68,0007.01,0003.16
2022-06-29 20:13:00,,0829.0,5.00,0.00,29.0,27.9,00.0,37.7,31.0,19.2,0000.0,0003.67,0006.91,0003.16
2022-06-29 20:14:00,,0829.0,5.00,0.00,29.0,27.6,00.0,37.6,30.9,19.2,0000.0,0003.67,0006.95,0003.15
2022-06-29 20:15:00,,0828.7,5.00,0.00,28.9,26.9,00.0,37.6,30.7,19.5,0000.0,0003.65,0006.61,0003.15
2022-06-29 20:16:00,,0828.7,5.00,0.00,28.9,26.8,00.0,37.6,30.7,19.1,0000.0,0003.67,0006.73,0003.15
2022-06-29 20:17:00,,0828.8,5.00,0.00,28.8,26.9,00.0,37.6,30.7,19.3,0000.0,0003.65,0006.66,0003.16
2022-06-29 20:18:00,,0828.7,5.00,0.00,28.8,27.1,00.0,37.6,30.7,19.2,0000.0,0003.70,0006.75,0003.18
2022-06-29 20:19:00,,0828.7,5.00,0.00,28.8,27.3,00.0,37.6,30.8,19.1,0000.0,0003.75,0006.91,0003.19
2022-06-29 20:20:00,,0828.8,5.00,0.00,28.9,27.5,00.0,37.6,30.9,19.4,0000.0,0003.79,0007.19,0003.19
2022-06-29 20:21:00,,0828.7,4.99,0.00,28.9,27.7,00.0,37.6,30.9,19.3,0000.0,0003.81,0007.34,0003.19
2022-06-29 20:22:00,,0829.0,5.00,0.00,28.9,27.9,00.0,37.7,31.0,19.2,0000.0,0003.82,0007.40,0003.19
2022-06-29 20:23:00,,0829.0,5.01,0.00,29.0,27.9,00.0,37.7,31.0,19.7,0000.0,0003.81,0007.39,0003.19
2022-06-29 20:24:00,,0828.9,5.00,0.00,28.9,27.3,00.0,37.6,30.8,19.3,0000.0,0003.81,0007.51,0003.19
2022-06-29 20:25:00,,0829.1,4.99,0.00,28.9,26.8,00.0,37.6,30.7,19.5,0000.0,0003.82,0007.48,0003.20
2022-06-29 20:26:00,,0829.2,5.00,0.00,28.9,26.9,00.0,37.6,30.7,19.8,0000.0,0003.87,0008.16,0003.21
2022-06-29 20:27:00,,0828.9,5.00,0.00,28.8,27.0,00.0,37.6,30.7,19.7,0000.0,0003.84,0008.90,0003.22
2022-06-29 20:28:00,,0829.1,5.00,0.00,28.8,27.2,00.0,37.6,30.7,19.6,0000.0,0003.88,0009.03,0003.21
2022-06-29 20:29:00,,0828.9,5.01,0.00,28.9,27.4,00.0,37.6,30.8,19.6,0000.0,0003.87,0009.07,0003.20
2022-06-29 20:30:00,,0828.7,4.99,0.00,28.9,27.6,00.0,37.6,30.9,19.9,0000.0,0003.85,0009.20,0003.19
2022-06-29 20:31:00,,0828.8,5.01,0.00,28.9,27.8,00.0,37.6,31.0,20.1,0000.0,0003.84,0009.12,0003.19
2022-06-29 20:32:00,,0828.8,5.00,0.00,29.0,27.9,00.0,37.7,31.0,19.5,0000.0,0003.83,0009.07,0003.19
2022-06-29 20:33:00,,0828.9,4.99,0.00,28.9,27.3,00.0,37.6,30.8,19.4,0000.0,0003.82,0009.10,0003.19
2022-06-29 20:34:00,,0828.7,4.99,0.00,28.9,26.8,00.0,37.6,30.7,19.4,0000.0,0003.83,0009.24,0003.20
2022-06-29 20:35:00,,0828.8,5.01,0.00,28.9,26.9,00.0,37.6,30.7,19.9,0000.0,0003.81,0009.11,0003.21
2022-06-29 20:36:00,,0829.0,5.00,0.00,28.8,27.0,00.0,37.6,30.7,19.8,0000.0,0003.85,0009.24,0003.21
2022-06-29 20:37:00,,0829.1,4.99,0.00,28.8,27.2,00.0,37.6,30.7,19.7,0000.0,0003.79,0008.83,0003.20
2022-06-29 20:38:00,,0828.9,5.01,0.00,28.9,27.4,00.0,37.6,30.8,19.8,0000.0,0003.75,0007.49,0003.19
2022-06-29 20:39:00,,0828.7,4.99,0.00,28.9,27.6,00.0,37.6,30.9,19.4,0000.0,0003.73,0007.33,0003.19
2022-06-29 20:40:00,,0829.1,4.98,0.00,28.9,27.8,00.0,37.6,30.9,19.2,0000.0,0003.71,0007.25,0003.19
2022-06-29 20:41:00,,0829.0,5.01,0.00,29.0,27.9,00.0,37.7,31.0,19.6,0000.0,0003.70,0006.63,0003.18
2022-06-29 20:42:00,,0828.6,5.00,0.00,28.9,27.3,00.0,37.6,30.8,19.3,0000.0,0003.71,0006.92,0003.17
2022-06-29 20:43:00,,0828.5,4.99,0.00,28.9,26.8,00.0,37.6,30.7,19.5,0000.0,0003.71,0007.34,0003.17
2022-06-29 20:44:00,,0828.5,4.99,0.00,28.9,26.8,00.0,37.6,30.7,19.4,0000.0,0003.72,0007.45,0003.17
2022-06-29 20:45:00,,0828.5,5.00,0.00,28.8,27.0,00.0,37.6,30.7,19.1,0000.0,0003.74,0007.43,0003.16
2022-06-29 20:46:00,,0828.5,5.00,0.00,28.8,27.1,00.0,37.6,30.7,19.5,0000.0,0003.76,0007.49,0003.16
2022-06-29 20:47:00,,0828.4,5.02,0.00,28.8,27.4,00.0,37.6,30.8,19.5,0000.0,0003.74,0007.42,0003.15
2022-06-29 20:48:00,,0828.4,5.00,0.00,28.9,27.6,00.0,37.6,30.9,19.5,0000.0,0003.77,0008.54,0003.16
2022-06-29 20:49:00,,0828.3,4.98,0.00,28.9,27.8,00.0,37.6,30.9,19.8,0000.0,0003.79,0008.78,0003.16
2022-06-29 20:50:00,,0828.4,5.00,0.00,28.9,27.9,00.0,37.6,31.0,18.9,0000.0,0003.79,0008.96,0003.16
2022-06-29 20:51:00,,0828.3,5.00,0.00,28.9,27.3,00.0,37.6,30.8,18.4,0000.0,0003.82,0009.03,0003.17
2022-06-29 20:52:00,,0828.3,5.00,0.00,28.9,26.8,00.0,37.6,30.7,18.5,0000.0,0003.81,0009.07,0003.16
2022-06-29 20:53:00,,0828.3,5.01,0.00,28.8,26.8,00.0,37.6,30.7,18.8,0000.0,0003.77,0008.84,0003.17
2022-06-29 20:54:00,,0828.3,5.00,0.00,28.8,26.9,00.0,37.6,30.7,18.9,0000.0,0003.77,0008.70,0003.16
2022-06-29 20:55:00,,0828.3,5.01,0.00,28.8,27.1,00.0,37.6,30.7,18.8,0000.0,0003.77,0008.67,0003.16
2022-06-29 20:56:00,,0828.5,5.00,0.00,28.8,27.3,00.0,37.6,30.8,18.9,0000.0,0003.75,0008.60,0003.16
2022-06-29 20:57:00,,0828.3,4.99,0.00,28.9,27.6,00.0,37.6,30.9,19.0,0000.0,0003.75,0008.60,0003.16
2022-06-29 20:58:00,,0828.4,5.00,0.00,28.9,27.8,00.0,37.6,30.9,19.0,0000.0,0003.77,0008.59,0003.16
2022-06-29 20:59:00,,0828.3,5.00,0.00,28.9,28.0,00.0,37.6,31.0,19.1,0000.0,0003.76,0007.55,0003.17
